Weather Roundup
Issued by NWS Corpus Christi, TX

Home | Current Version | Previous Version | Text Only | Print | Product List | Glossary On
Versions: 1 2 3 4 5 6 7 8 9 10 11 12 13 14 15 16 17 18 19 20 21 22 23 24 25 26 27 28 29 30 31 32 33 34 35 36 37 38 39 40 41 42 43 44 45 46 47 48 49 50
000
ASUS44 KCRP 310610
HRRCRP

SOUTH TEXAS REGIONAL WEATHER ROUNDUP
NATIONAL WEATHER SERVICE CORPUS CHRISTI TX
100 AM CDT TUE MAY 31 2016


TXZ229>244-310700-
...CORPUS CHRISTI AREA OBSERVATIONS...

CITY           SKY/WX    TMP DP  RH WIND       PRES   REMARKS
CORPUS CHRISTI CLOUDY    78  75  90 SE7       29.90F
NAS CORPUS CHR CLOUDY    80  76  87 S12       29.90F
ROCKPORT       CLOUDY    80  73  79 S8        29.90F
KINGSVILLE NAS MOCLDY    78  78 100 SE10      29.88F
ALICE          CLOUDY    78  75  90 SE16      29.88F
FALFURRIAS     CLOUDY    77  73  85 E7        29.88F
$$

...VICTORIA AREA OBSERVATIONS...

CITY           SKY/WX    TMP DP  RH WIND       PRES   REMARKS
VICTORIA       CLOUDY    75  73  93 S7        29.92F
BEEVILLE       FAIR      76  76 100 SE7       29.91F
PLEASANTON     CLOUDY    76  72  85 E6        29.91F
SAN ANTONIO    MOCLDY    76  72  87 SE8       29.93F
$$

...LAREDO AREA OBSERVATIONS...

CITY           SKY/WX    TMP DP  RH WIND       PRES   REMARKS
LAREDO         CLOUDY    81  72  74 SE10      29.86F
COTULLA        CLOUDY    79  71  76 E9        29.88F
DEL RIO        CLOUDY    75  66  73 E5        29.88F
MCALLEN        CLOUDY    81  75  82 SE7       29.89S
HEBBRONVILLE   CLOUDY    78  72  83 SE7       29.89F
$$

...OTHER TEXAS OBSERVATIONS...

CITY           SKY/WX    TMP DP  RH WIND       PRES   REMARKS
BROWNSVILLE    CLOUDY    78  76  93 SE8       29.89F
HOUSTON        MOCLDY    73  70  90 S3        29.94F
COL. STATION   PTCLDY    75  71  87 S5        29.94F
AUSTIN         CLOUDY    75  73  93 S8        29.91F
WACO           CLOUDY    76  67  73 S12       29.91F
FORT WORTH     CLOUDY    77  67  71 S5        29.91S
WICHITA FALLS  CLOUDY    71  66  84 S9        29.90S
LUBBOCK        LGT RAIN  63  59  87 W10       30.06F
EL PASO        TSTM      69  57  65 NE6       29.98F
$$

...MARINE OBSERVATIONS...

STATION/POSITION TIME  SKY/WX   TEMP    WIND        PRES    VSBY  WAVE   SWELL
                                AIR SEA DIR/SP/G                  HT/PER HT/PER
                 (UTC)          (F)     (DEG/KT/KT) (MB)    (MI)  (FT/S) (FT/S)
PORT ARANSAS     0600            81 83  140/ 15/ 17 1013.0F
BUOY 90 E PORT A 0550            80 81  150/ 10/ 10 1013.8F         2/ 6   2/ 6
BUOY 45 SE BAFFI 0550            81 82  150/ 12/ 14 1012.4F         3/ 6   2/ 6
BUOY 200 E PT IS 0550                                 N/A           2/ 5   2/ 6
BUOY 15 E GALVES 0550            80 83  200/ 10/ 12 1013.9R         2/ 5   2/ 5
$$



USA.gov is the U.S. government's official web portal to all federal, state and local government web resources and services.